星链-34724(STARLINK-34724)

导读

STARLINK-34724是美国太空探索技术公司(SpaceX)星链星座的组网卫星,于2025年11月11日发射入轨,属于星链低轨互联网星座的扩容卫星,延续了星链卫星批量发射、部署低轨的特征,旨在为全球用户提供高速低延迟的卫星互联网服务,补充完善星座全球覆盖能力,支撑星链系统的服务稳定性与覆盖密度提升。

基本信息
目录编号:
66442
目录名称:
STARLINK-34724
国际标识:
2025-259W
轨道中心:
EARTH
卫星名称:
星链-34724
卫星全名:
星链-34724(STARLINK-34724)
卫星状态:
在轨 (已飞行214 天)
发射日期:
2025-11-11 UTC
国别 :
美国 (US)
星等 :
--
轨道信息
数据来源 国际轨道数据
星历时间: 2026-06-11T21:37:41+0800
1天前
查看轨道信息
半长轴: 6861.182km
偏心率: 0.0001043
轨道倾角: 42.994°
近地点辐角 260.649°
升交点赤经 104.605°
平近点角 99.424°
近地点: 482.329km
远地点: 483.761km
周期: 94.267分钟
每日圈数: 15.275815
详细信息
固有亮度:
5
最大亮度:
2.5
卫星平台:
Starlink V1.0
覆盖范围:
全球
运营商:
太空探索技术公司
运营商所在国:
美国
制造商(研发单位):
太空探索技术公司
制造商所在国:
美国
使用方式:
暂无
卫星简介
Starlink 计划是 SpaceX 推出的全球卫星互联网项目,通过发射低轨道卫星,为全球尤其是偏远地区提供高速、低延迟的互联网服务。自 2019 年起,Starlink 已部署数千颗卫星,旨在缩小全球数字鸿沟,推动互联网普及。该项目还为军事、航空等行业提供通信支持,带来广泛经济效益。
2D轨道图
3D轨道图
轨道高度分析图
轨道倾角分析图
轨道综合分析图
查看轨道综合分析图